Погода в Тоттори

Япония     35°30′15″N   134°13′39″E
темп.,
°C
ветер,
м/с
пор.,
м/с
влажн.,
%
обл.,
%
осадки,
мм/ч
давл.,
гПа
погр.,
м
3 марта, ср
ср300:00+3с81082100 0.4 10261095
03:00+3с71075100 0.8 10271229
06:00+3ссв6871100 0.1 10291174
09:00+4св476198 0.2 10311367
12:00+5ссв455974 0.0 10311207
15:00+6ссв555844 0.0 1029897
18:00+4св347190 0.0 1029292
21:00+3юв227495 0.0 1030138
4 марта, чт
чт400:00+3ююв337670 0.0 1030118
03:00+4ю456885 0.0 1029190
06:00+5ю5780100 0.0 1029223
09:00+9ю487087 0.0 1030522
12:00+12ю5869100 0.0 10281003
15:00+13ю4868100 0.0 1027737
18:00+10ююв3381100 0.0 102689
21:00+9ююв4108093 0.0 1027438
5 марта, пт
пт500:00+10ююв597993 0.0 1026375
03:00+9ююв578167 0.0 1025259
06:00+9ю468099 0.0 1025169
09:00+12ю367378 0.0 1026401
12:00+15ю576432 0.0 1024623
15:00+15ю466634 0.0 1022609
18:00+13ююв357599 0.0 1022158
21:00+12ю348299 0.1 1023137
6 марта, сб
сб600:00+11ююв3588100 0.5 1022194
03:00+11ю2394100 2.8 1021102
06:00+11зсз1295100 1.4 102265
09:00+10ссв6997100 7.9 1024407
12:00+8ссв6995100 0.6 1024521
15:00+7св7993100 2.4 1025662
18:00+6св71192100 1.3 1026632
21:00+6св6988100 1.4 1028654
7 марта, вс
вс700:00+5св6889100 0.1 1027618
03:00+5св5890100 0.2 1026603
06:00+5св5890100 0.4 1027582
09:00+6св5685100 0.5 1026650
12:00+7св5780100 0.1 1026729
15:00+7св5678100 0.1 1024796
18:00+6св4678100 0.0 1024675
21:00+5св347997 0.1 1025509